This demonstration page uses our WeatherBlox Daily Observations layout. Learn more.

Left ArrowRight Arrow

41.55636, -103.73856

Hourly Observations for November 30, 2018

Temp ( °F °C ) Dew Point ( °F °C ) Humidity (%) Winds ( mph kmh ) Pressure ( in mb ) Visibility ( mi km ) Precip ( " mm )
12:58 am 00:58 Cloudy with Mist and Fog 36 2.2 35 1.8 97 97 S 17 28 29.74 1007 6 10 N/A
1:58 am 01:58 Mostly Cloudy 36 2.3 35 1.7 96 96 S 13 20 29.73 1007 9 14 N/A
2:58 am 02:58 Cloudy 36 2.1 35 1.5 96 96 S 10 17 29.72 1006 9 14 N/A
3:58 am 03:58 Cloudy with Mist and Fog 35 1.8 35 1.4 97 97 S 8 13 29.77 1008 3 5 N/A
4:58 am 04:58 Mostly Cloudy with Fog 35 1.4 34 1.1 98 98 S 8 13 29.72 1006 3 5 0.00 0.00
5:58 am 05:58 Mostly Cloudy with Patchy Fog 35 1.4 34 1.1 98 98 S 16 26 29.71 1006 1 1 N/A
6:58 am 06:58 Cloudy 34 1.3 34 1.1 99 99 S 15 24 29.69 1005 10 16 N/A
7:58 am 07:58 Cloudy 34 0.9 33 0.3 96 96 SSE 20 31 29.69 1005 6 10 N/A
8:58 am 08:58 Cloudy 34 1.1 33 0.4 95 95 S 12 19 29.71 1006 9 14 N/A
9:58 am 09:58 Cloudy 34 1.3 32 0.2 92 92 SSE 12 19 29.69 1005 10 16 N/A
10:58 am 10:58 Cloudy 33 0.7 32 -0.1 94 94 SE 10 17 29.67 1005 10 16 N/A
11:58 am 11:58 Cloudy with Mist and Fog 33 0.4 32 -0.1 96 96 SSE 8 13 29.65 1004 4 6 N/A
12:58 pm 12:58 Cloudy with Mist and Fog 33 0.3 31 -0.3 96 96 S 5 7 29.63 1003 3 5 N/A
1:58 pm 13:58 Mostly Cloudy with Mist and Fog 33 0.3 32 0 98 98 Calm 29.63 1003 5 8 N/A
2:56 pm 14:56 Cloudy with Drizzle 33 0.3 32 0.1 99 99 SE 3 6 29.64 1004 2 3 0.01 0.25
3:58 pm 15:58 Cloudy with Mist and Fog 33 0.4 32 0.1 98 98 Calm 29.65 1004 7 11 N/A
5:58 pm 17:58 Cloudy with Mist and Fog 31 -0.3 31 -0.5 99 99 E 5 7 29.66 1005 2 3 N/A
6:58 pm 18:58 Cloudy with Light Rain/Snow 31 -0.4 31 -0.6 99 99 Calm 29.68 1005 5 8 N/A
7:58 pm 19:58 Cloudy with Light Showers 31 -0.3 31 -0.6 98 98 Calm 29.70 1006 4 6 0.01 0.25
8:58 pm 20:58 Cloudy with Light Rain/Snow 31 -0.4 31 -0.7 98 98 Calm 29.66 1005 7 11 N/A
9:58 pm 21:58 Mostly Cloudy with Light Rain/Snow 30 -1 30 -1.2 99 99 WNW 6 9 29.66 1004 3 4 0.01 0.25
10:58 pm 22:58 Partly Cloudy 29 -1.4 29 -1.6 99 99 NW 10 17 29.64 1004 7 11 0.00 0.00
11:58 pm 23:58 Mostly Cloudy with Freezing Fog 29 -1.4 29 -1.5 99 99 NE 7 11 29.67 1005 5 8 N/A

Powered by AerisWeather